Weather Service Report


439 
ASUS41 KBTV 010230
RWRBTV
VERMONT REGIONAL WEATHER ROUNDUP
NATIONAL WEATHER SERVICE BURLINGTON VT
1000 PM EDT THU JUN 30 2016

NOTE: "FAIR" INDICATES FEW OR NO CLOUDS BELOW 12,000 FEET WITH NO 
SIGNIFICANT WEATHER AND/OR OBSTRUCTIONS TO VISIBILITY.

* THESE REPORTS ARE NOT UNDER NWS QUALITY CONTROL AND/OR DO NOT
  REPORT WEATHER SUCH AS PRECIPITATION AND FOG.

VTZ001>019-010300-
_____VERMONT_____

  
CITY           SKY/WX    TMP DP  RH WIND       PRES   REMARKS
BURLINGTON     FAIR      71  57  61 E5        29.97R                  
MONTPELIER     FAIR      60  54  80 CALM      30.05R                  
MORRISVILLE    FAIR      59  56  89 CALM      30.02R                  
ST. JOHNSBURY*   N/A     65  57  75 MISG      29.99R                  
LYNDONVILLE*   FAIR      60  54  80 CALM      30.04R                  
MIDDLEBURY*    FAIR      71  51  49 SE3       29.98S                  
RUTLAND*       FAIR      66  53  63 SE6       30.02R                  
SPRINGFIELD    FAIR      63  56  78 CALM      30.02R                  
HIGHGATE*      FAIR      62  59  90 CALM      29.97S                  
NEWPORT*       FAIR      60  53  79 SW3       30.02R                  
BENNINGTON     FAIR      61  53  75 S5        30.03R                  
SUTTON*          N/A     61 N/A N/A MISG        N/A                   

_____LAKE CHAMPLAIN_____

  
CITY           SKY/WX    TMP DP  RH WIND       PRES   REMARKS
BURTON ISLAND*   N/A     72  59  64 NE2         N/A                   
COLCHESTER RF*   N/A     72  64  78 NW8         N/A                   
DIAMOND ISL*     N/A     72  61  68 SE2         N/A                   

$$

NYZ007-026>031-035-052-083-087-010300-
_____NORTHERN NEW YORK_____

  
CITY           SKY/WX    TMP DP  RH WIND       PRES   REMARKS
PLATTSBURGH    CLEAR     64  58  80 CALM      29.96R                  
SARANAC LAKE   PTCLDY    56  52  86 CALM      30.03R                  
MASSENA        CLEAR     66  52  60 SW5       29.98R                  
OGDENSBURG*    CLEAR     57  54  88 S3        29.98S                  
WATERTOWN      PTCLDY    57  52  83 CALM      29.99R                  
FT DRUM        PTCLDY    62  52  70 S6        30.00R                  
ALBANY         MOCLDY    70  54  56 CALM      30.00R                  
GLENS FALLS    CLOUDY    66  51  58 CALM      29.99R                  

$$
NHZ002-005-011-010300-
_____NEW HAMPSHIRE_____

  
CITY           SKY/WX    TMP DP  RH WIND       PRES   REMARKS
LEBANON        CLEAR     63  56  78 CALM      30.00R                  
KEENE          CLOUDY    63  54  72 CALM      30.03S                  
MT WASHINGTON  PTCLDY    48  43  81 W18         N/A                   
PLYMOUTH       FAIR      60  57  92 CALM      30.01R                  
WHITEFIELD     CLEAR     60  55  83 CALM      30.02R                  

$$

_____REGIONAL QUEBEC LOCATIONS_____

  
CITY           SKY/WX    TMP DP  RH WIND       PRES   REMARKS
MONTREAL       PTCLDY    72  57  60 SW8       29.94S                  
QUEBEC CITY    PTCLDY    66  57  72 SW6       29.93R                  
SHERBROOKE     CLEAR     59  54  82 VRB2      29.99R                  

_____REGIONAL ONTARIO LOCATIONS_____

  
CITY           SKY/WX    TMP DP  RH WIND       PRES   REMARKS
OTTAWA         PTCLDY    68  48  49 S7        29.95R                  

______KEY______
VSB  - VISIBILITY IN MILES
WCI  - WIND CHILL INDEX
HX   - HEAT INDEX
$$
NNNN
  

Return to Home page


Western Regional Climate Center, wrcc@dri.edu